Regional Weather Roundup
Issued by NWS

Home | Current Version | Previous Version | Graphics & Text | Print | Product List | Glossary On
Versions: 1 2 3 4 5 6 7 8 9 10 11 12 13 14 15 16 17 18 19 20 21 22 23 24 25 26 27 28 29 30 31 32 33 34 35 36 37 38 39 40 41 42 43 44 45 46 47 48 49 50
000
ASUS45 KTFX 221010
RWRMT
MONTANA REGIONAL WEATHER ROUNDUP
NATIONAL WEATHER SERVICE GREAT FALLS MT
400 AM MDT FRI MAY 22 2015

NOTE: "FAIR" INDICATES FEW OR NO CLOUDS BELOW 12000 FEET WITH NO
SIGNIFICANT WEATHER AND/OR OBSTRUCTIONS TO VISIBILITY.

MTZ001>007-043-221100-
WEST OF THE DIVIDE

CITY           SKY/WX    TMP DP  RH WIND       PRES   REMARKS
KALISPELL      SUNNY     42  36  79 CALM      29.91S
MISSOULA       CLEAR     46  41  82 CALM      29.94R
BUTTE          PTCLDY    36  34  92 S5        30.00R
MULLAN PASS    CLEAR     49  37  63 CALM      29.98S
DEER LODGE       N/A     39  37  93 CALM      30.01S
EUREKA           N/A     46  32  57 CALM      29.92S
HAMILTON         N/A     45  41  87 SE2       29.93S
LIBBY            N/A     48  37  66 SE3       29.90S
RONAN            N/A     45  40  82 N2        29.96S
$$

MTZ008-052>055-221100-
SOUTHWEST MONTANA

CITY           SKY/WX    TMP DP  RH WIND       PRES   REMARKS
BOZEMAN        CLEAR     40  37  89 CALM      29.97S
DILLON         CLOUDY    46  42  86 N3        29.96S
W YELLOWSTONE  PTCLDY    34  34 100 CALM      30.03S
THREE FORKS      N/A     41  21  44 CALM      29.96S
TWIN BRIDGES     N/A     46  38  74 CALM      29.96S
$$

MTZ009-010-012-014-046-048-049-054-221100-
EAST SLOPES AND CENTRAL MONTANA

CITY           SKY/WX    TMP DP  RH WIND       PRES   REMARKS
CUT BANK       PTCLDY    44  28  53 E8        29.97S
GREAT FALLS    CLEAR     45  40  82 CALM      29.95S
MALMSTROM AFB  CLEAR     43  38  83 SE6       29.95S
HELENA         CLEAR     44  41  89 W3        29.96R
CONRAD           N/A     37  35  92 NE1       29.99S
$$

MTZ011-013-016-021-045-047-050-051-221100-
NORTH CENTRAL MONTANA

CITY           SKY/WX    TMP DP  RH WIND       PRES   REMARKS
HAVRE          CLEAR     43  32  65 NE6       29.99S
LEWISTOWN      CLEAR     47  38  71 E9        29.99R
N BAR RANCH    FAIR      41  36  81 NW3       30.03S
CHINOOK          N/A     43  34  70 E3        30.02S
FORT BENTON      N/A     52  36  54 NE7       29.97S
$$

MTZ017>020-022>027-061-062-221100-
NORTHEAST MONTANA

CITY           SKY/WX    TMP DP  RH WIND       PRES   REMARKS
GLASGOW        CLEAR     47  33  58 E13       30.06R
JORDAN           N/A     47  31  53 E7        30.03S
SIDNEY         CLEAR     41  34  75 CALM      30.11F
WOLF POINT     CLEAR     42  34  73 E3        30.10R
MALTA            N/A     47  32  56 NE3       30.00S
PLENTYWOOD       N/A     54  34  47 E3        30.12R
POPLAR           N/A     46  37  71 NE12      30.10S
$$

MTZ028>42-056>058-221100-
SOUTHCENTRAL AND SOUTHEAST MONTANA

CITY           SKY/WX    TMP DP  RH WIND       PRES   REMARKS
BAKER          CLEAR     33  29  85 SE8       30.10F WCI  26
BILLINGS       MOCLDY    47  41  80 NE5       29.95S
LIVINGSTON     PTCLDY    38  35  89 CALM      29.98S
MILES CITY     CLEAR     47  32  56 E6        30.04S
BIG TIMBER       N/A     45  39  81 SW3       30.00R
EKALAKA          N/A     46  32  58 SE10      30.05R
FORSYTH          N/A     46  37  71 E5        30.01R
LAUREL           N/A     46  37  70 CALM      29.94S
ROUNDUP          N/A     44  32  63 CALM      29.90S
$$

REGIONAL REPORTS...DAKOTAS

CITY           SKY/WX    TMP DP  RH WIND       PRES   REMARKS
WILLISTON      CLEAR     42  36  79 CALM      30.11S
MINOT          CLEAR     50  34  54 S3        30.13R
DICKINSON      CLEAR     40  32  73 E7        30.11S
BEACH          PTSUNNY   39  34  81 S7        30.12S
CROSBY         FAIR      48  39  71 SW9       30.13S
WATFORD CITY   FAIR      39  36  87 CALM      30.11S
BISMARCK       CLEAR     43  39  86 NE5       30.15S
GRAND FORKS    CLEAR     39  36  89 SW3       30.15S
FARGO          CLEAR     42  39  89 CALM      30.16S
BUFFALO SD       N/A     37  29  72 SW6       30.05R
RAPID CITY     CLOUDY    49  45  86 SE5       30.10S
$$

REGIONAL REPORTS...WYOMING/IDAHO/WASHINGTON

CITY           SKY/WX    TMP DP  RH WIND       PRES   REMARKS
GILLETTE       MOCLDY    47  43  86 SE10      30.03S
SHERIDAN       PTCLDY    45  41  86 S7        29.98S
BUFFALO WY     MOCLDY    44  42  93 SE12      30.01S
CODY           CLOUDY    48  43  81 SW7       29.97S
YELLOWSTONE LA   N/A     35  33  92 CALM      30.07F
IDAHO FALLS    CLOUDY    48  45  89 CALM      29.94F
SALMON         PTCLDY    48  45  87 CALM      29.93S
BOISE          PTCLDY    54  47  77 SE7       29.87R
SPOKANE        MOCLDY    62  51  67 SE6       29.84S
$$

REGIONAL REPORTS...ALBERTA

CITY           SKY/WX    TMP DP  RH WIND       PRES   REMARKS
EDMONTON       CLEAR     45  30  57 SE2       29.95S
CALGARY        PTCLDY    41  28  60 CALM      29.98S
LETHBRIDGE     CLEAR     41  30  65 SW5       29.97R
MEDICINE HAT   CLEAR     43  30  61 NE6       29.99S
$$

REGIONAL REPORTS...SASKATCHEWAN

CITY           SKY/WX    TMP DP  RH WIND       PRES   REMARKS
SWIFT CURRENT  CLEAR     45  30  57 S10       30.07S
REGINA         PTCLDY    48  34  57 SE8       30.11S
SASKATOON      CLEAR     48  34  57 S5        30.08S
$$



USA.gov is the U.S. government's official web portal to all federal, state and local government web resources and services.